TimeCDT,TemperatureF,Dew PointF,Humidity,Sea Level PressureIn,VisibilityMPH,Wind Direction,Wind SpeedMPH,Gust SpeedMPH,PrecipitationIn,Events,Conditions,WindDirDegrees,DateUTC
12:53 AM,57.0,53.1,87,30.07,10.0,Calm,Calm,-,N/A,,Mostly Cloudy,0,2012-10-09 05:53:00
1:53 AM,57.9,54.0,87,30.06,10.0,SW,3.5,-,N/A,,Overcast,220,2012-10-09 06:53:00
2:53 AM,60.8,55.4,82,30.07,10.0,Calm,Calm,-,N/A,,Overcast,0,2012-10-09 07:53:00
3:53 AM,60.1,55.0,83,30.04,10.0,South,3.5,-,N/A,,Overcast,180,2012-10-09 08:53:00
4:53 AM,60.1,54.0,80,30.03,10.0,Calm,Calm,-,N/A,,Overcast,0,2012-10-09 09:53:00
5:53 AM,61.0,54.0,78,30.03,10.0,South,4.6,-,N/A,,Overcast,190,2012-10-09 10:53:00
6:05 AM,60.8,53.6,77,30.04,10.0,South,5.8,-,N/A,,Overcast,180,2012-10-09 11:05:00
6:53 AM,61.0,54.0,78,30.04,10.0,South,5.8,-,N/A,,Overcast,170,2012-10-09 11:53:00
7:53 AM,61.0,55.0,81,30.05,10.0,South,3.5,-,N/A,,Overcast,180,2012-10-09 12:53:00
8:53 AM,63.0,55.0,75,30.06,10.0,South,5.8,-,N/A,,Overcast,190,2012-10-09 13:53:00
9:53 AM,64.9,57.0,75,30.07,10.0,South,9.2,-,N/A,,Overcast,170,2012-10-09 14:53:00
10:53 AM,68.0,59.0,73,30.07,10.0,South,9.2,-,N/A,,Overcast,190,2012-10-09 15:53:00
11:53 AM,73.0,62.1,68,30.05,10.0,SSW,12.7,-,N/A,,Overcast,200,2012-10-09 16:53:00
12:53 PM,75.0,64.0,69,30.02,10.0,South,13.8,-,N/A,,Overcast,190,2012-10-09 17:53:00
1:53 PM,78.1,64.9,64,29.97,10.0,SSW,13.8,23.0,N/A,,Overcast,200,2012-10-09 18:53:00
2:15 PM,80.6,64.4,58,29.98,10.0,SSW,18.4,21.9,N/A,,Overcast,210,2012-10-09 19:15:00
2:53 PM,81.0,64.9,58,29.94,10.0,SSW,12.7,23.0,N/A,,Overcast,200,2012-10-09 19:53:00
3:53 PM,82.0,64.0,54,29.92,10.0,SSW,17.3,24.2,N/A,,Mostly Cloudy,200,2012-10-09 20:53:00
4:53 PM,82.0,64.0,54,29.91,10.0,SSW,13.8,21.9,N/A,,Scattered Clouds,210,2012-10-09 21:53:00
5:53 PM,81.0,64.9,58,29.90,10.0,SSW,11.5,-,N/A,,Scattered Clouds,200,2012-10-09 22:53:00
6:53 PM,78.1,64.9,64,29.91,10.0,SSW,5.8,-,N/A,,Partly Cloudy,210,2012-10-09 23:53:00
7:53 PM,73.0,64.9,76,29.91,10.0,SSW,5.8,-,N/A,,Clear,200,2012-10-10 00:53:00
8:53 PM,71.1,64.9,81,29.93,10.0,South,5.8,-,N/A,,Clear,170,2012-10-10 01:53:00
9:53 PM,70.0,64.9,84,29.96,10.0,South,4.6,-,N/A,,Scattered Clouds,190,2012-10-10 02:53:00
10:53 PM,68.0,64.0,87,29.97,10.0,South,4.6,-,N/A,,Clear,180,2012-10-10 03:53:00
11:53 PM,64.0,63.0,96,29.98,10.0,Calm,Calm,-,N/A,,Clear,0,2012-10-10 04:53:00